Location: Ponte Samoggia
(44.5667°N, 11.1333°E)
Time: 16:41:22
(UTC+00:00)

Cosmos 1674 - Pass Details

Date: 26 May 2022
Orbit: 487 x 510 km, 82.5° (Epoch: 06 July)

Event Time Altitude Azimuth Distance (km) Brightness Sun altitude
Exits shadow 00:11:38 25° 293° (WNW) 1,037 4.2 -23.0°
Drops below altitude 10° 00:14:36 10° 344° (NNW) 1,720 6.1 -22.8°
Sets 00:17:00 0° 358° (N) 2,614 7.5 -22.7°
